Location: Peterborough
(44.3091°N, 78.3197°W)
Time: 15:53:59
(UTC-04:00)

Transit 4A - Pass Details

Date: 25 March 2023
Orbit: 864 x 980 km, 66.8° (Epoch: 04 June)

Event Time Altitude Azimuth Distance (km) Brightness Sun altitude
Rises 10:37:34 0° 289° (WNW) 3,469 10.4 34.5°
Reaches altitude 10° 10:42:48 10° 329° (NNW) 2,560 9.8 35.3°
Maximum altitude 10:43:52 10° 339° (NNW) 2,534 9.9 35.4°
Drops below altitude 10° 10:44:57 10° 350° (N) 2,574 9.9 35.6°
Sets 10:50:19 0° 29° (NNE) 3,554 10.8 36.3°
